Regional Weather Roundup
Issued by NWS

Home | Current Version | Previous Version | Graphics & Text | Print | Product List | Glossary On
Versions: 1 2 3 4 5 6 7 8 9 10 11 12 13 14 15 16 17 18 19 20 21 22 23 24 25 26 27 28 29 30 31 32 33 34 35 36 37 38 39 40 41 42 43 44 45 46 47 48 49 50
000
ASUS43 KMKX 182300
RWRWI

WISCONSIN REGIONAL WEATHER ROUNDUP
NATIONAL WEATHER SERVICE MILWAUKEE/SULLIVAN WI
600 PM CDT THU SEP 18 2014

NOTE: "FAIR" INDICATES FEW OR NO CLOUDS BELOW 12,000 FEET WITH NO
SIGNIFICANT WEATHER AND/OR OBSTRUCTIONS TO VISIBILITY.

WIZ001-002-006>008-014>016-023>028-190000-
NORTHWEST WISCONSIN

CITY           SKY/WX    TMP DP  RH WIND       PRES   REMARKS
SUPERIOR ARPT  CLOUDY    49  44  83 NE10G16   30.07F
ASHLAND        PTSUNNY   50  45  83 NE9       30.10S
HAYWARD        SUNNY     59  51  75 SE7       30.06F
SIREN          SUNNY     64  53  66 E6        30.04S
RICE LAKE      SUNNY     61  51  70 SE7       30.07F
LADYSMITH      SUNNY     60  51  73 SE6       30.09F
EAU CLAIRE     NOT AVBL
MENOMONIE      CLEAR     66  55  66 E9        30.05F
NEW RICHMOND   SUNNY     67  56  66 SE7       30.02F
OSCEOLA        SUNNY     68  57  68 SE9       30.04F
$$

WIZ003>005-009-010-017-018-190000-
NORTH CENTRAL WISCONSIN

CITY           SKY/WX    TMP DP  RH WIND       PRES   REMARKS
WOODRUFF       SUNNY     57  49  74 S3        30.10F
RHINELANDER    SUNNY     56  47  71 S7        30.12F
EAGLE RIVER    CLOUDY    55  44  65 S5        30.11F
LAND O LAKES   PTCLDY    54  45  70 SE5       30.12F
PHILLIPS       SUNNY     57  49  75 S7        30.09F
TOMAHAWK       SUNNY     56  47  72 CALM      30.12F
MEDFORD        SUNNY     55  49  80 S5        30.10F
MERRILL        SUNNY     57  48  73 CALM      30.12S
$$

WIZ029-030-035-036-043>047-190000-
CENTRAL WISCONSIN

CITY           SKY/WX    TMP DP  RH WIND       PRES   REMARKS
WAUSAU         SUNNY     57  48  72 S6        30.11F
MOSINEE        SUNNY     55  50  82 SE5       30.13F
MARSHFIELD     SUNNY     57  49  74 SE8       30.11S
STEVENS POINT  SUNNY     55  47  73 SE7       30.13S
WAUPACA        SUNNY     62  50  65 E6        30.13F
WAUTOMA        NOT AVBL
WISC RAPIDS    SUNNY     61  50  67 E6        30.13S
CAMP DOUGLAS   NOT AVBL
$$

WIZ011>013-019>022-031-037>040-048>050-190000-
NORTHEAST WISCONSIN

CITY           SKY/WX    TMP DP  RH WIND       PRES   REMARKS
ANTIGO         MOSUNNY   55  47  74 SE5       30.13F
STURGEON BAY   CLEAR     52  45  76 SE7       30.16S
GREEN BAY      MOCLDY    57  48  72 NE3       30.15S
MANITOWOC      NOT AVBL
APPLETON       MOCLDY    59  46  63 VRB3      30.14F
CLINTONVILLE   CLEAR     55  46  71 E5        30.14S
OSHKOSH        CLEAR     59  51  75 NE5       30.13F
$$

WIZ032>034-041-042-053>061-190000-
SOUTHWEST WISCONSIN

CITY           SKY/WX    TMP DP  RH WIND       PRES   REMARKS
LA CROSSE      MOSUNNY   69  55  60 SE7       30.05F
SPARTA         SUNNY     64  52  64 SE7       30.10S
VIROQUA        FAIR      66  55  66 SE5       30.09F
BOSCOBEL       SUNNY     69  57  65 NE6       30.08S
PRAIRIE DU CHI SUNNY     70  51  50 SE6       30.06F
PLATTEVILLE    FAIR      68  53  58 CALM      30.09S
$$

WIZ056-057-062-063-064-067-068-190000-
SOUTH CENTRAL WISCONSIN

CITY           SKY/WX    TMP DP  RH WIND       PRES   REMARKS
BARABOO/DELLS  SUNNY     62  51  66 E7        30.11F
LONE ROCK      NOT AVBL
WATERTOWN      PTCLDY    64  54  69 SE5       30.11S
MADISON        PTSUNNY   64  53  67 E6        30.11F
MIDDLETON      FAIR      65  52  62 E8        30.11F
MONROE         SUNNY     64  54  68 E7        30.10F
JANESVILLE     MOSUNNY   68  52  56 E9        30.10S
$$

WIZ051-052-058>065-066-070>072-190000-
SOUTHEAST WISCONSIN

CITY           SKY/WX    TMP DP  RH WIND       PRES   REMARKS
MILWAUKEE      MOCLDY    57  51  80 NE7       30.15S
WAUKESHA       PTCLDY    57  50  77 E7        30.15S
MILWAUKEE/TIMM CLOUDY    55  48  76 E5        30.15S
RACINE         CLOUDY    58  51  78 E5        30.16S
BURLINGTON     CLEAR     59  52  76 E8        30.13F
KENOSHA        CLOUDY    58  53  84 NE6       30.15S
FOND DU LAC    CLEAR     59  51  75 NE7       30.13F
SHEBOYGAN      CLEAR     55  47  74 E7        30.15S
WEST BEND      CLOUDY    57  48  72 E6        30.14F
JUNEAU         PTCLDY    62  53  72 E5        30.13F
$$

LSZ147-162-190000-
LAKE SUPERIOR

STATION/POSITION TIME  TEMP    WIND        PRES    WAVE
                       AIR SEA DIR/SP/G            HT/PER
                 (UTC) (F)     (DEG/KT/KT) (MB)    (FT/S)
W MID LAKE BUOY  2150   45 47   60/ 10/ 12 1020.3F   1/ 3
DEVILS ISLAND    2200   46      50/  9/  9 1020.3F
PORT WING        2200   50      40/ 14/ 16 1019.0F
SAXON HARBOR     2200   51      40/  8/  9 1019.6F
$$

LMZ867-665-643>646-190000-
LAKE MICHIGAN

STATION/POSITION TIME  TEMP    WIND        PRES    WAVE
                       AIR SEA DIR/SP/G            HT/PER
                 (UTC) (F)     (DEG/KT/KT) (MB)    (FT/S)
N MID LAKE BUOY  2150   52 59   50/  4/  4 1021.9F   1
NORTHPORT PIER   2200   54     120/  5/  8 1021.3F
KEWAUNEE LAKESHO 2200   54      80/  3/  5 1020.3F
SHEBOYGAN LAKESH 2200   52 49   40/ 10/ 10 1021.6F
PORT WASHINGTON  2240   57      60/  5/  7 1021.3F
ATWATER BUOY     2200   56      10/  8/ 12 1021.8F
MILWAUKEE LAKESH 2200   56      30/  9/ 11   N/A
S MID LAKE BUOY  2150   61 65   20/ 12/ 12 1020.3F   2/ 6
KENOSHA   LAKESH 2200   56     360/ 10/ 11 1020.3S
$$

TC  - TEMPERATURE IN CELSIUS
VSB - VISIBILITY IN STATUTE MILES
WCI - WIND CHILL INDEX
HX  - HEAT INDEX




USA.gov is the U.S. government's official web portal to all federal, state and local government web resources and services.